Dewpoint
41 42 41 42 41 40 39 36 35 36 35 34 35 34 35 33 32 33 34 33 33 33 34 34 33 33 34 34 30 27 23 21 19 19 20 20 19 19 20 22 23 23 24
42 41 41 41 41 38 37 35 35 35 35 35 37 36 34 32 31 33 33 32 32 31 31 32 32 31 31 27 24 22 20 20 19 16 18 19 19 19 20 21 21 21 23
41 42 41 39 37 35 37 38 36 37 37 36 35 34 33 32 31 32 32 32 32 31 32 31 30 29 28 24 22 20 20 18 19 18 18 19 19 19 19 21 22 22 23
41 39 39 41 39 39 39 39 37 36 36 35 35 34 34 32 32 33 32 32 31 32 31 28 26 26 24 22 21 19 18 18 19 19 18 17 18 19 20 20 19 21 18
42 41 41 41 39 40 39 37 38 37 35 35 34 33 33 33 32 33 32 32 31 28 28 26 25 24 25 22 19 18 18 19 19 18 17 16 17 17 19 18 18 17 18
41 42 41 41 39 37 36 36 35 34 33 35 37 35 33 32 33 35 33 30 28 27 25 23 23 26 27 30 27 24 22 19 18 16 16 16 16 18 18 17 17 18 17
42 42 41 39 37 35 34 33 33 34 37 38 36 33 31 32 34 34 34 28 26 25 23 22 23 21 25 25 28 25 22 21 22 18 17 17 17 16 17 19 20 21 21
41 41 39 35 34 33 33 34 36 39 38 33 32 30 31 30 33 34 33 25 24 24 23 24 23 22 24 21 20 19 18 18 17 15 17 18 18 19 20 21 24 24 22
33 33 34 35 35 36 36 38 39 35 32 31 30 29 29 29 32 33 31 24 24 23 24 25 24 23 25 26 21 20 19 19 17 19 21 21 22 21 21 20 20 20 17
33 34 35 37 38 39 38 36 33 32 32 29 28 29 30 29 31 33 32 25 24 25 24 25 28 25 25 26 23 20 19 18 15 16 19 19 19 20 21 21 21 19 18
39 40 40 40 39 38 34 32 30 29 29 28 28 28 28 29 29 32 33 27 26 26 26 25 25 27 26 26 25 21 20 19 19 19 20 19 19 19 18 19 21 20 19
38 38 37 35 32 31 31 31 30 28 27 27 24 26 27 28 30 31 33 33 28 26 25 25 26 27 27 26 25 26 26 23 20 19 18 18 17 18 17 19 21 21 21
33 32 32 32 31 31 31 30 28 27 26 26 27 26 26 27 27 30 32 32 32 28 27 26 27 27 27 26 27 28 24 21 19 12 16 17 16 17 19 21 20 20 20
31 30 30 30 30 29 29 29 28 26 25 27 27 26 26 26 26 26 27 28 31 31 28 27 27 27 25 23 22 25 22 20 19 18 16 15 16 17 16 19 17 18 18
29 29 29 29 28 28 28 29 28 28 28 28 28 27 24 25 26 28 27 26 26 28 29 28 25 24 23 22 22 22 21 19 17 14 12 13 14 17 15 16 17 17 12
28 28 27 27 27 27 27 27 30 30 30 31 31 29 29 29 30 31 32 32 32 31 28 24 24 24 22 22 20 20 17 17 18 17 13 14 15 14 13 16 17 13 14
28 29 29 28 28 28 28 28 28 29 31 31 31 32 32 32 33 33 32 32 32 32 28 26 23 23 22 21 21 19 18 17 17 16 15 13 14 12 11 13 12 12 12
28 28 28 27 27 26 25 26 27 26 26 27 29 31 31 31 33 33 32 31 29 30 30 26 23 24 22 21 20 19 19 17 13 14 11 13 10 10 8 11 11 5 10
23 21 21 21 21 21 22 21 22 22 22 23 24 24 27 30 30 32 33 27 29 28 27 27 25 24 23 22 21 20 19 15 9 6 13 12 8 10 8 10 6 6 7
18 19 19 21 21 21 19 18 18 20 21 22 22 23 24 26 28 27 24 24 29 27 27 26 26 25 24 23 21 20 17 14 11 11 12 13 11 8 9 6 -1 1 10
19 19 17 18 18 17 18 17 18 17 15 17 21 23 24 25 27 28 26 24 28 29 28 28 27 26 25 24 23 21 20 20 18 17 16 15 10 7 9 6 1 7 10
15 16 14 13 14 13 13 15 14 15 14 14 14 16 18 26 27 28 27 26 29 28 28 29 28 27 26 26 25 24 23 22 20 20 18 16 15 13 10 3 1 1 5
12 11 8 9 9 8 9 9 11 9 10 11 12 13 14 15 15 17 18 19 20 19 20 21 23 27 27 27 27 26 25 23 23 23 21 19 16 14 8 5 4 -1 1
9 6 6 4 5 5 3 4 6 5 6 8 8 10 11 12 12 12 12 13 13 12 15 17 19 21 21 23 28 28 28 27 27 25 24 22 18 14 12 6 5 1 -1
2 -2 -2 1 0 -1 -1 1 0 0 2 3 5 6 8 9 10 9 10 10 8 8 8 10 13 16 18 17 19 21 24 27 28 25 24 23 20 16 14 12 5 6 0
2 1 0 -3 -3 -3 -4 -2 -4 -3 -2 -1 1 3 5 6 7 6 7 7 6 6 6 8 10 11 13 16 17 19 20 20 26 27 25 23 20 18 15 13 9 8 8
Lifted_Index
-2 -2 -1 -1 -1 0 1 2 3 4 5 6 7 9 10 11 11 11 11 11 11 11 11 11 11 11 11 11 11 11 12 12 12 13 13 12 12 12 12 12 12 12 12
-2 -1 -1 -1 -0 0 1 3 4 5 7 8 8 9 10 11 11 11 11 11 11 11 11 11 11 10 10 11 11 11 12 12 12 12 12 11 11 11 11 11 11 12 12
-1 -1 -0 -0 0 1 2 4 5 7 8 8 9 10 10 11 11 11 11 11 11 10 10 10 9 9 10 10 11 11 11 11 11 11 10 10 10 10 11 11 11 11 12
-1 -0 -0 0 1 2 4 5 7 8 8 9 10 10 11 11 11 11 11 10 10 9 9 8 8 8 9 10 10 11 10 10 10 10 9 9 9 9 10 10 10 11 11
-0 -0 0 1 2 3 5 6 7 8 9 9 10 10 10 11 11 11 10 10 9 8 7 7 7 7 8 9 9 10 10 9 9 9 9 8 9 9 9 10 10 11 11
0 0 1 1 3 4 6 7 8 8 9 10 10 10 10 11 11 11 10 9 8 7 6 6 6 7 7 8 8 9 9 9 9 8 8 8 8 9 9 10 11 11 10
1 1 1 2 4 5 7 8 8 8 9 9 10 10 11 11 11 10 9 8 7 6 6 6 6 6 7 7 8 8 8 8 8 8 8 8 9 9 10 10 11 11 11
1 1 2 4 5 6 7 8 8 8 9 10 11 11 11 11 11 10 8 7 6 5 5 5 6 6 7 7 8 8 8 8 8 9 9 9 9 10 10 11 11 11 11
1 2 4 6 7 7 8 8 9 9 10 11 11 12 11 11 10 9 8 6 6 5 5 6 6 6 7 7 8 8 8 8 8 9 9 9 10 10 11 11 11 10 10
3 4 6 7 8 8 8 9 10 10 11 11 12 11 11 10 9 8 7 6 6 6 6 6 6 7 7 7 8 8 7 8 8 8 9 9 9 10 10 11 11 10 10
6 6 7 8 8 9 9 10 11 11 12 12 11 11 10 9 8 7 7 6 6 6 6 6 6 6 6 7 7 7 7 8 8 8 8 9 9 9 10 10 11 11 11
7 8 8 9 10 10 11 12 12 12 12 12 11 10 9 8 7 7 6 6 6 6 6 6 6 6 6 6 7 7 7 7 8 8 8 8 8 9 9 10 10 11 11
9 10 11 12 12 12 12 12 12 12 12 11 11 10 9 8 7 7 7 7 6 6 6 6 6 6 6 6 6 7 7 7 7 8 8 8 8 8 9 9 10 10 10
12 13 13 14 14 13 13 13 13 12 11 11 10 9 8 7 7 6 7 7 7 6 6 6 5 5 5 6 6 6 7 7 7 8 8 8 8 8 8 9 9 9 9
14 14 14 14 13 13 13 12 12 11 10 9 8 7 7 6 6 6 7 7 7 6 6 5 5 5 5 5 6 6 6 7 7 7 8 8 8 8 8 8 8 8 8
14 14 14 13 13 12 12 12 11 10 9 8 7 6 5 5 5 6 6 7 7 6 6 5 5 4 5 5 6 6 6 7 7 7 7 7 7 7 8 8 8 8 8
14 14 13 13 13 13 12 12 11 10 9 8 6 6 5 5 5 5 6 6 6 6 5 5 5 4 4 5 5 6 6 7 7 7 7 7 7 7 7 7 8 7 7
14 14 14 14 14 14 14 13 13 12 10 9 8 7 7 6 6 5 6 6 6 6 5 5 5 4 4 5 5 5 6 6 7 7 7 7 7 7 7 7 7 7 7
15 15 15 15 15 15 15 14 13 12 11 10 10 9 9 8 7 6 5 6 6 5 5 5 5 4 4 4 5 5 6 6 6 7 7 7 7 7 7 7 7 7 7
16 16 16 16 16 15 14 13 13 12 12 11 11 10 10 8 7 6 6 6 6 5 5 5 4 4 4 4 4 5 5 6 6 6 6 7 7 7 7 6 7 7 7
16 16 16 16 15 14 14 13 13 13 13 12 11 10 9 8 7 6 6 5 5 5 4 4 4 4 3 4 4 4 4 5 5 6 6 6 6 7 7 6 6 7 7
17 17 16 15 15 14 14 14 14 14 13 12 11 10 9 8 7 6 6 5 5 5 4 4 4 3 3 3 3 3 3 4 4 5 5 6 6 6 7 7 6 6 7
16 16 15 14 14 14 14 14 14 14 13 12 12 11 10 9 8 7 6 6 5 4 4 4 4 3 3 3 3 3 3 3 4 4 4 5 5 6 6 6 6 6 6
15 15 14 14 14 14 14 14 14 14 13 12 12 11 10 10 9 9 8 7 6 5 4 4 4 4 4 3 3 3 3 3 4 4 4 4 4 5 5 6 6 6 6
15 15 14 14 14 14 14 14 14 14 13 13 12 12 12 11 10 10 9 8 6 5 5 5 5 5 5 4 4 4 4 4 4 4 4 4 4 4 5 5 6 6 6
15 15 15 15 15 14 14 14 14 14 13 13 13 13 13 12 11 10 9 8 6 6 5 6 6 6 6 5 5 5 4 4 4 4 4 4 4 4 5 5 6 6 6